This demonstration page uses our WeatherBlox Daily Observations layout. Learn more.

39.01783, -85.05884

Hourly Observations for August 25, 2020

Temp ( °F °C ) Dew Point ( °F °C ) Humidity (%) Winds ( mph kmh ) Pressure ( in mb ) Visibility ( mi km ) Precip ( " mm )
12:52 am 00:52 Clear 75 23.9 68 20 79 79 SW 6 9 30.04 1017 10 16.0934 0 0
1:52 am 01:52 Clear 75 23.9 68 20 79 79 SW 6 9 30.05 1018 10 16.0934 0 0
2:52 am 02:52 Clear 73 22.8 68 20 84 84 SSW 6 9 30.04 1017 9 14.48406 0 0
3:52 am 03:52 Clear 74 23.3 68 20 82 82 SW 6 9 30.04 1017 10 16.0934 0 0
4:52 am 04:52 Clear 72 22.2 68 20 87 87 SSW 6 9 30.04 1017 8 12.87472 0 0
5:52 am 05:52 Clear 73 22.8 68 20 84 84 WSW 5 7 30.04 1017 9 14.48406 0 0
6:52 am 06:52 Clear 72 22.2 67 19.4 84 84 SW 5 7 30.04 1017 7 11.26538 0 0
7:52 am 07:52 Sunny 73 22.8 68 20 84 84 SW 5 7 30.07 1018 7 11.26538 0 0
8:52 am 08:52 Sunny 75 23.9 69 20.6 82 82 WSW 6 9 30.08 1019 9 14.48406 0 0
9:52 am 09:52 Sunny 80 26.7 70 21.1 71 71 W 10 17 30.07 1018 9 14.48406 0 0
10:52 am 10:52 Mostly Sunny 82 27.8 71 21.7 69 69 W 10 17 30.08 1019 10 16.0934 0 0
11:52 am 11:52 Mostly Sunny 85 29.4 71 21.7 63 63 W 9 15 30.06 1018 10 16.0934 0 0
12:52 pm 12:52 Mostly Sunny 87 30.6 71 21.7 59 59 W 9 15 30.05 1018 10 16.0934 0 0
1:52 pm 13:52 Partly Cloudy 89 31.7 71 21.7 55 55 WSW 9 15 30.04 1017 10 16.0934 0 0
2:52 pm 14:52 Partly Cloudy 90 32.2 70 21.1 52 52 W 10 17 30.03 1017 10 16.0934 0 0
3:52 pm 15:52 Mostly Sunny 90 32.2 70 21.1 52 52 W 13 20 30.01 1016 10 16.0934 0 0
4:52 pm 16:52 Partly Cloudy 88 31.1 71 21.7 57 57 W 13 20 30 1016 10 16.0934 0 0
5:52 pm 17:52 Partly Cloudy 89 31.7 71 21.7 55 55 W 10 17 30 1016 10 16.0934 0 0
5:57 pm 17:57 Partly Cloudy with Thunderstorms 89 31.7 72 22.2 57 57 W 10 17 29.98 1015 10 16.0934 0 0
6:18 pm 18:18 Mostly Cloudy with Thunderstorms 87 30.6 70 21.1 57 57 N 24 39 30.01 1016 10 16.0934 0 0
6:52 pm 18:52 Cloudy with Thunderstorms 75 23.9 63 17.2 66 66 SW 8 13 30.02 1017 10 16.0934 0.18 4.572
7:01 pm 19:01 Mostly Cloudy 75 23.9 66 18.9 74 74 W 3 6 30 1016 10 16.0934 0 0
7:52 pm 19:52 Partly Cloudy 77 25 69 20.6 77 77 W 3 6 30.02 1017 10 16.0934 0 0
8:52 pm 20:52 Mostly Clear 74 23.3 69 20.6 85 85 SSE 3 6 30.04 1017 10 16.0934 0 0
9:52 pm 21:52 Mostly Cloudy 75 23.9 69 20.6 82 82 S 3 6 30.05 1018 9 14.48406 0 0
10:52 pm 22:52 Partly Cloudy 75 23.9 70 21.1 84 84 W 5 7 30.06 1018 9 14.48406 0.001 0.001
11:52 pm 23:52 Mostly Cloudy with Thunderstorms 75 23.9 70 21.1 84 84 SSW 3 6 30.06 1018 9 14.48406 0 0

Powered by AerisWeather